OneWeb SL0695

operational
NORAD ID: 61602 Int'l Des: 2024-188 Owner: ONEWEBE Country: UK Constellation: oneweb
LEOCIRCULARPOLARONEWEB_TYPE

About OneWeb SL0695

Description loading...

Live Position

Loading 3D Globe...

Upcoming Passes

Altitude History

Altitude vs Time

uPlot chart will show altitude changes over time

Two-Line Element Set

1 61602U 24188J 26033.45236598 -.00000439 00000-0 -12759-2 0 9998
2 61602 87.8813 47.8918 0002157 104.8327 255.3039 13.11415123 66808
Epoch: Feb 2, 2026 • Age: 17 hours

Current Status

Altitude 1220.0 km
Velocity 7.25 km/s
Sub-Earth Point 27.11°N, 31.6°E
Launch Date Oct 20, 2024
Age 1.2 years
Type internet

Technical Details

Classification Payload
Mass 148.00 kg
Dry Mass 140.00 kg
Total Mass 148.00 kg
Length 1.30 m
Diameter 1.00 m
Span 5.00 m
Shape Trapezoid+2 pan
Manufacturer ONEWUS
Bus Type ARROW
Phase Status In Orbit
Owner/State ONEWEBE/UK

Large Constellations

Loading constellations...